Flag for Jersey Weather past 2 weeks in Saint Helier, Jersey

Now
54 °F

Passing clouds.


Feels Like: 51 °F
Forecast: 55 / 62 °F
Wind: 8 mph from North

Location: Jersey Airport

Current Time: Sep 2, 2015 at 4:36:57 AM

Latest Report: Sep 2, 2015 at 4:20 AM


Visibility: N/A

Pressure: 30.12 "Hg

Humidity: 88%

Dew point: 50 °F

Location of Saint HelierLocation

Historic Weather in Saint Helier — Graph

°F

Saint Helier temperature yesterday

Maximum temperature yesterday: 64 °F (at 3:50 PM)
Minimum temperature yesterday: 57 °F (at 5:20 AM)
Average temperature yesterday: 60 °F

Past Weeks' High & Low Weather Summary

 TemperatureHumidityPressure
High77 °F (Aug 21, 4:50 PM)100% (Aug 18, 6:50 AM)30.18 "Hg (Aug 18, 6:50 AM)
Low54 °F (Aug 18, 5:50 AM)54% (Aug 21, 4:50 PM)29.33 "Hg (Aug 24, 6:50 AM)
Average63 °F87%29.93 "Hg
* Reported Aug 17 8:20 PM — Sep 1 8:50 PM, Saint Helier, Weather by CustomWeather, © 2015

Note: Actual official high and low records may vary slightly from our data, if they occured in-between our weather recording intervals... More about our weather records

Advertising

Saint Helier weather history for previous 24 hours

 ConditionsComfort  
Time TempWeatherWind HumidityBarometerVisibility
8:50 PM
Tue, Sep 1
57 °FPassing clouds.10 mph82%30.15 "HgN/A
8:20 PM57 °FPassing clouds.10 mph88%30.15 "HgN/A
7:50 PM59 °FPassing clouds.10 mph82%30.15 "HgN/A
7:20 PM59 °FPassing clouds.15 mph82%30.15 "HgN/A
6:50 PM61 °FPassing clouds.12 mph77%30.15 "HgN/A
6:20 PM61 °FPassing clouds.14 mph83%30.15 "HgN/A
5:50 PM61 °FPassing clouds.14 mph77%30.15 "HgN/A
5:20 PM63 °FPassing clouds.9 mph73%30.15 "HgN/A
4:20 PM63 °FPassing clouds.14 mph77%30.15 "HgN/A
3:50 PM64 °FScattered clouds.12 mph73%30.15 "HgN/A
3:20 PM63 °FPassing clouds.13 mph77%30.15 "HgN/A
2:50 PM63 °FPassing clouds.13 mph73%30.15 "HgN/A
2:20 PM63 °FPassing clouds.8 mph77%30.15 "HgN/A
1:50 PM63 °FPassing clouds.13 mph77%30.15 "HgN/A
1:20 PM61 °FPassing clouds.14 mph77%30.15 "HgN/A
12:50 PM61 °FScattered clouds.12 mph77%30.15 "HgN/A
12:20 PM61 °FScattered clouds.12 mph77%30.15 "HgN/A
11:50 AM61 °FScattered clouds.10 mph77%30.15 "HgN/A
11:20 AM63 °FScattered clouds.14 mph73%30.15 "HgN/A
10:50 AM61 °FScattered clouds.18 mph77%30.12 "HgN/A
10:20 AM61 °FScattered clouds.12 mph83%30.12 "HgN/A
9:50 AM61 °FScattered clouds.13 mph83%30.12 "HgN/A
9:20 AM61 °FScattered clouds.10 mph83%30.09 "HgN/A
8:50 AM61 °FScattered clouds.10 mph83%30.09 "HgN/A
8:20 AM59 °FScattered clouds.13 mph88%30.07 "HgN/A
7:50 AM59 °FScattered clouds.10 mph88%30.07 "HgN/A
7:20 AM59 °FPassing clouds.13 mph88%30.07 "HgN/A
6:50 AM57 °FPassing clouds.8 mph94%30.07 "HgN/A
6:20 AM57 °FPassing clouds.8 mph94%30.04 "HgN/A
5:50 AM57 °FPassing clouds.8 mph88%30.04 "HgN/A
5:20 AM57 °FPassing clouds.8 mph94%30.04 "HgN/A
4:20 AM59 °FPassing clouds.9 mph88%30.04 "HgN/A
Weather by CustomWeather, © 2015

See weather overviewHow to use our weather pages